Weather History for KBBW - April, 2014

Change the Weather History Date:

Monday, April 28, 2014

  Actual Average Record
Temperature  
Mean Temperature 40 °F 52 °F  
Max Temperature 42 °F 66 °F 99 °F (1910)
Min Temperature 37 °F 39 °F 16 °F (1965)
Degree Days  
Heating Degree Days 26 13  
Month to date heating degree days 440 493  
Cooling Degree Days 0 0  
Month to date cooling degree days 0 0  
Year to date cooling degree days 0 0  
Moisture  
Dew Point 31 °F    
Average Humidity 76    
Maximum Humidity 76    
Minimum Humidity 76    
Precipitation  
Precipitation 0.51 in 0.10 in 1.49 in (1982)
Sea Level Pressure  
Sea Level Pressure 29.36 in    
Wind  
Wind Speed 29 mph (NNW)    
Max Wind Speed 43 mph    
Max Gust Speed 55 mph    
Visibility 8 miles    
Events Rain , Thunderstorm    
T = Trace of Precipitation, MM = Missing Value Source: NWS Daily Summary

Daily Weather History Graph

Daily Weather History Graph

Search for Another Location

Airport or City:

Trip Planner

Search our weather history database for the weather conditions in past years. The results will help you decide how hot, cold, wet, or windy it might be!

Date:

Astronomy

Apr. 28, 2014 Rise Set
Actual Time 6:39 AM CDT 8:33 PM CDT
Civil Twilight 6:09 AM CDT 9:02 PM CDT
Nautical Twilight 5:33 AM CDT 9:39 PM CDT
Astronomical Twilight 4:54 AM CDT 10:18 PM CDT
Moon 6:19 AM CDT (4/28) 8:12 PM CDT (4/28)
Length of Visible Light 14h 53m
Length of Day
13h 53m
Waning Crescent, 0% of the Moon is Illuminated
Apr 28
Waning Crescent
Apr 29
New
May 6
First Quarter
May 14
Full
May 21
Last Quarter

Hourly Weather History & Observations

Time (CDT) Temp. Windchill Dew Point Humidity Pressure Visibility Wind Dir Wind Speed Gust Speed Precip Events Conditions
12:04 AM 42.8 °F 31.4 °F - N/A% 29.24 in 3.0 mi North 35.7 mph 42.6 mph N/A Rain , Thunderstorm Rain
12:22 AM 41.0 °F 30.0 °F - N/A% 29.22 in 7.0 mi NNW 28.8 mph 43.7 mph 0.04 in Rain , Thunderstorm Light Rain
12:27 AM 41.0 °F 29.7 °F - N/A% 29.22 in 8.0 mi NNW 31.1 mph 42.6 mph 0.04 in Rain Light Rain
12:37 AM 39.9 °F 27.6 °F - N/A% 29.21 in 10.0 mi NNW 34.5 mph 46.0 mph 0.04 in Rain , Thunderstorm Light Rain
12:47 AM 39.2 °F 26.6 °F - N/A% 29.22 in 10.0 mi NNW 34.5 mph 42.6 mph 0.04 in   Overcast
12:53 AM 39.2 °F 27.4 °F - N/A% 29.23 in 10.0 mi NNW 29.9 mph 42.6 mph N/A   Overcast
1:00 AM 39.9 °F 28.4 °F - N/A% 29.24 in 10.0 mi NNW 29.9 mph 40.3 mph N/A Thunderstorm Overcast
1:14 AM 39.9 °F 32.5 °F - N/A% 29.30 in 10.0 mi SE 12.7 mph 20.7 mph N/A Thunderstorm Thunderstorm
1:16 AM 39.9 °F 32.1 °F - N/A% 29.31 in 10.0 mi SSE 13.8 mph 24.2 mph N/A Thunderstorm Thunderstorm
1:27 AM 39.0 °F 27.2 °F - N/A% 29.23 in - West 29.9 mph 35.7 mph 0.04 in Rain , Thunderstorm Heavy Thunderstorms and Rain
1:32 AM 37.0 °F 23.1 °F - N/A% 29.21 in - NW 38.0 mph 47.2 mph 0.13 in Rain , Thunderstorm Heavy Thunderstorms and Rain
1:37 AM 37.9 °F 24.4 °F - N/A% 29.21 in - NW 38.0 mph 50.6 mph 0.20 in Rain , Thunderstorm Heavy Thunderstorms and Rain
1:43 AM 37.9 °F 24.9 °F - N/A% 29.22 in - NW 34.5 mph 55.2 mph 0.21 in Rain , Thunderstorm Thunderstorms and Rain
1:53 AM 37.4 °F 25.0 °F - N/A% 29.23 in - NW 29.9 mph 43.7 mph N/A Rain , Thunderstorm Light Thunderstorms and Rain
1:59 AM 37.9 °F 26.8 °F - N/A% 29.23 in - NW 24.2 mph 42.6 mph 0.01 in Rain Light Rain
2:43 AM 37.9 °F 26.8 °F - N/A% 29.24 in - NW 24.2 mph 35.7 mph 0.01 in   Mostly Cloudy
2:53 AM 37.4 °F 25.6 °F - N/A% 29.24 in - NW 26.5 mph 33.4 mph N/A   Overcast
3:53 AM 37.9 °F 26.1 °F - N/A% 29.23 in 10.0 mi NNW 27.6 mph 40.3 mph N/A   Overcast
4:53 AM 37.4 °F 25.9 °F - N/A% 29.25 in 10.0 mi NNW 25.3 mph 36.8 mph N/A Rain Light Rain
5:53 AM 37.9 °F 26.6 °F - N/A% 29.24 in 10.0 mi NNW 25.3 mph 36.8 mph 0.00 in   Overcast
6:53 AM 37.9 °F 27.1 °F 30.9 °F 76% 29.27 in 10.0 mi NW 23.0 mph 31.1 mph N/A   Overcast
7:53 AM 37.9 °F 26.3 °F 32.0 °F 79% 29.29 in 9.0 mi NNW 26.5 mph 34.5 mph 0.04 in Rain Light Rain
8:16 AM 37.9 °F 26.8 °F 32.0 °F 79% 29.28 in 7.0 mi NNW 24.2 mph 39.1 mph 0.00 in Rain Light Rain
8:38 AM 37.4 °F 26.1 °F 30.2 °F 75% 29.29 in 2.5 mi NNW 24.2 mph 40.3 mph N/A Rain Rain
8:49 AM 37.4 °F 25.2 °F 30.2 °F 75% 29.29 in 3.0 mi NNW 28.8 mph 36.8 mph 0.05 in Rain Rain
8:53 AM 37.4 °F 25.6 °F 30.2 °F 75% 29.30 in 3.0 mi NNW 26.5 mph 34.5 mph N/A Rain Rain
9:39 AM - - - N/A% 29.30 in 5.0 mi NNW 26.5 mph 34.5 mph 0.03 in Rain Light Rain
9:53 AM - - - N/A% 29.30 in 10.0 mi NNW 27.6 mph 35.7 mph 0.03 in Rain Light Rain
10:36 AM - - - N/A% 29.31 in 2.5 mi NNW 29.9 mph 40.3 mph 0.03 in Rain Light Rain
10:45 AM - - - N/A% 29.31 in 6.0 mi NNW 21.9 mph 35.7 mph 0.03 in Rain Light Rain
10:53 AM - - - N/A% 29.31 in 10.0 mi NNW 24.2 mph 38.0 mph 0.03 in Rain Light Rain
11:53 AM - - - N/A% 29.32 in 7.0 mi NNW 26.5 mph 41.4 mph 0.00 in Rain Light Rain
12:53 PM - - - N/A% 29.34 in 7.0 mi NNW 26.5 mph 41.4 mph 0.01 in Rain Light Rain
1:53 PM - - - N/A% 29.34 in 6.0 mi NNW 32.2 mph 43.7 mph 0.00 in Rain Light Rain
2:27 PM - - - N/A% 29.36 in 10.0 mi NNW 33.4 mph 44.9 mph 0.01 in   Overcast
2:53 PM - - - N/A% 29.38 in 10.0 mi NNW 29.9 mph 43.7 mph 0.01 in Rain Light Rain
3:53 PM - - - N/A% 29.41 in 10.0 mi NNW 33.4 mph 51.8 mph 0.00 in Rain Light Rain
4:53 PM - - - N/A% 29.44 in 10.0 mi NNW 36.8 mph 46.0 mph 0.00 in Rain Light Rain
5:53 PM - - - N/A% 29.48 in 10.0 mi NNW 33.4 mph 46.0 mph 0.01 in Rain Light Rain
6:25 PM - - - N/A% 29.50 in 9.0 mi NNW 31.1 mph 41.4 mph 0.02 in Rain Light Rain
6:45 PM - - - N/A% 29.51 in 3.0 mi NNW 38.0 mph 49.5 mph 0.04 in Rain Light Rain
6:53 PM - - - N/A% 29.52 in 4.0 mi NNW 27.6 mph 49.5 mph 0.04 in Rain Light Rain
7:39 PM - - - N/A% 29.54 in 10.0 mi NNW 27.6 mph 41.4 mph 0.01 in Rain Light Rain
7:53 PM - - - N/A% 29.55 in 10.0 mi NNW 28.8 mph 43.7 mph 0.01 in Rain Light Rain
8:29 PM - - - N/A% 29.56 in 10.0 mi NNW 27.6 mph 39.1 mph 0.02 in Rain Light Rain
8:44 PM - - - N/A% 29.57 in 8.0 mi NNW 29.9 mph 38.0 mph 0.03 in Rain Light Rain
8:53 PM - - - N/A% 29.57 in 6.0 mi NNW 27.6 mph 38.0 mph 0.03 in Rain Light Rain
9:00 PM - - - N/A% 29.57 in 5.0 mi NNW 28.8 mph 38.0 mph 0.01 in Rain Light Rain
9:25 PM - - - N/A% 29.57 in 9.0 mi NNW 34.5 mph 43.7 mph 0.02 in Rain Light Rain
9:34 PM - - - N/A% 29.58 in 10.0 mi NNW 28.8 mph 43.7 mph 0.02 in Rain Light Rain
9:53 PM - - - N/A% 29.59 in 10.0 mi NNW 28.8 mph 43.7 mph N/A Rain Light Rain
10:08 PM - - - N/A% 29.60 in 10.0 mi NNW 29.9 mph 41.4 mph 0.00 in Rain Light Rain
10:53 PM - - - N/A% 29.61 in 10.0 mi NNW 31.1 mph 40.3 mph 0.00 in Rain Light Rain
11:53 PM - - - N/A% 29.62 in 10.0 mi NNW 32.2 mph 41.4 mph 0.00 in Rain Light Rain